Weather in Novaya Lyalya

Russia / Sverdlovsk Oblast     59°03′07″N   60°35′38″E
temp.,
°C
wind,
m/s
gust,
m/s
humid.,
%
clouds,
%
prec.,
mm/h
press.,
hPa
HPBL,
m
26 july, mon
mon2623:00+9w397414 0.0 1017186
02:00+10w3866100 0.0 1017239
05:00+11w286699 0.0 1017239
08:00+14w375682 0.0 1017469
11:00+19wnw4638100 0.0 10152702
14:00+19wnw464291 0.0 10152147
17:00+20w374288 0.0 10142218
20:00+17w485920 0.0 1013627
27 july, tue
tue2723:00+12wsw3108561 0.0 1013251
02:00+11sw3118224 0.0 1011275
05:00+11sw4128065 0.0 1009491
08:00+14w51078100 0.0 1009742
11:00+17wnw68483 0.0 10081685
14:00+19wnw683721 0.0 10082265
17:00+17wnw674150 0.0 10092080
20:00+13wnw475611 0.0 10101131
28 july, wed
wed2823:00+8wnw26836 0.0 1010133
02:00+8wsw387984 0.0 1009310
05:00+8w31083100 0.1 1009510
08:00+8wsw2891100 0.6 1008761
11:00+11nnw477195 1.1 10081307
14:00+14nw5543100 0.1 10092029
17:00+14wnw4541100 0.1 10092021
20:00+12wnw485394 0.0 10101033
29 july, thu
thu2923:00+8wsw3868100 0.0 1010227
02:00+7wsw2781100 0.1 1009198
05:00+7sw2594100 0.5 1009159
08:00+9sw238799 0.0 1008216
11:00+14sw246471 0.1 10071141
14:00+17w245596 0.4 10061346
17:00+14sw117985 0.6 100653
20:00+16ene117475 0.0 100514
30 july, fri
fri3023:00+10se11946 0.0 100510
02:00+9wsw119590 0.0 100510
05:00+9wsw1196100 0.0 100510
08:00+14s117972 0.0 1005189
11:00+21s125683 0.0 1004899
14:00+24ssw235355 0.3 10031581
17:00+22wsw2378100 1.9 1003375
20:00+19sw1187100 0.9 100214